Time,TemperatureF,DewpointF,PressureIn,WindDirection,WindDirectionDegrees,WindSpeedMPH,WindSpeedGustMPH,Humidity,HourlyPrecipIn,Conditions,Clouds,dailyrainin,SoftwareType,DateUTC
2014-04-17 00:01:00,59.1,48.0,29.88,West,259,0.0,1.0,68,0.00,,,0.00,weatherlink.com 1.10,2014-04-17 07:01:00,
2014-04-17 00:16:00,59.0,49.0,29.89,SSW,198,0.0,1.0,69,0.00,,,0.00,weatherlink.com 1.10,2014-04-17 07:16:00,
2014-04-17 00:31:00,59.5,48.0,29.89,SSW,198,0.0,1.0,67,0.00,,,0.00,weatherlink.com 1.10,2014-04-17 07:31:00,
2014-04-17 00:46:00,59.3,49.0,29.89,SE,142,0.0,1.0,68,0.00,,,0.00,weatherlink.com 1.10,2014-04-17 07:46:00,
2014-04-17 01:01:00,59.1,49.0,29.88,ESE,110,0.0,3.0,70,0.00,,,0.00,weatherlink.com 1.10,2014-04-17 08:01:00,
2014-04-17 01:16:00,58.8,49.0,29.88,SSW,200,0.0,1.0,71,0.00,,,0.00,weatherlink.com 1.10,2014-04-17 08:16:00,
2014-04-17 01:31:00,58.3,49.0,29.88,SSW,200,0.0,1.0,72,0.00,,,0.00,weatherlink.com 1.10,2014-04-17 08:31:00,
2014-04-17 01:46:00,58.0,48.0,29.88,SSW,200,0.0,1.0,70,0.00,,,0.00,weatherlink.com 1.10,2014-04-17 08:46:00,
2014-04-17 02:01:00,58.5,48.0,29.87,SSW,200,0.0,1.0,68,0.00,,,0.00,weatherlink.com 1.10,2014-04-17 09:01:00,
2014-04-17 02:16:00,58.8,48.0,29.87,SSW,203,0.0,1.0,67,0.00,,,0.00,weatherlink.com 1.10,2014-04-17 09:16:00,
2014-04-17 02:31:00,57.7,48.0,29.86,SSW,203,0.0,1.0,69,0.00,,,0.00,weatherlink.com 1.10,2014-04-17 09:31:00,
2014-04-17 02:46:00,58.6,48.0,29.86,SSW,203,0.0,0.0,67,0.00,,,0.00,weatherlink.com 1.10,2014-04-17 09:46:00,
2014-04-17 03:01:00,59.0,48.0,29.86,SSW,203,0.0,0.0,66,0.00,,,0.00,weatherlink.com 1.10,2014-04-17 10:01:00,
2014-04-17 03:16:00,58.8,48.0,29.85,SSW,203,0.0,0.0,67,0.00,,,0.00,weatherlink.com 1.10,2014-04-17 10:16:00,
2014-04-17 03:31:00,58.0,47.0,29.85,SSW,203,0.0,0.0,68,0.00,,,0.00,weatherlink.com 1.10,2014-04-17 10:31:00,
2014-04-17 03:46:00,56.9,46.0,29.85,SSW,203,0.0,0.0,68,0.00,,,0.00,weatherlink.com 1.10,2014-04-17 10:46:00,
2014-04-17 04:01:00,57.9,47.0,29.85,SSW,203,0.0,0.0,68,0.00,,,0.00,weatherlink.com 1.10,2014-04-17 11:01:00,
2014-04-17 04:16:00,56.2,48.0,29.85,SSW,203,0.0,0.0,74,0.00,,,0.00,weatherlink.com 1.10,2014-04-17 11:16:00,
2014-04-17 04:31:00,55.8,49.0,29.84,SSW,203,0.0,0.0,77,0.00,,,0.00,weatherlink.com 1.10,2014-04-17 11:31:00,
2014-04-17 04:46:00,55.3,48.0,29.84,SSW,203,0.0,0.0,77,0.00,,,0.00,weatherlink.com 1.10,2014-04-17 11:46:00,
2014-04-17 05:01:00,55.3,48.0,29.84,SSW,203,0.0,0.0,77,0.00,,,0.00,weatherlink.com 1.10,2014-04-17 12:01:00,
2014-04-17 05:16:00,56.1,48.0,29.84,SSW,203,0.0,0.0,75,0.00,,,0.00,weatherlink.com 1.10,2014-04-17 12:16:00,
2014-04-17 05:31:00,55.5,48.0,29.84,SSW,203,0.0,0.0,75,0.00,,,0.00,weatherlink.com 1.10,2014-04-17 12:31:00,
2014-04-17 05:46:00,55.1,48.0,29.84,SSW,204,0.0,0.0,76,0.00,,,0.00,weatherlink.com 1.10,2014-04-17 12:46:00,
2014-04-17 06:01:00,55.1,47.0,29.84,SSW,204,0.0,0.0,75,0.00,,,0.00,weatherlink.com 1.10,2014-04-17 13:01:00,
2014-04-17 06:16:00,55.6,47.0,29.84,SSW,204,0.0,0.0,74,0.00,,,0.00,weatherlink.com 1.10,2014-04-17 13:16:00,
2014-04-17 06:31:00,54.8,47.0,29.84,SSW,204,0.0,0.0,74,0.00,,,0.00,weatherlink.com 1.10,2014-04-17 13:31:00,
2014-04-17 06:46:00,54.7,47.0,29.84,SSW,204,0.0,0.0,75,0.00,,,0.00,weatherlink.com 1.10,2014-04-17 13:46:00,
2014-04-17 07:01:00,55.8,48.0,29.85,SSW,204,0.0,0.0,75,0.00,,,0.00,weatherlink.com 1.10,2014-04-17 14:01:00,
2014-04-17 07:16:00,56.0,49.0,29.85,SSW,204,0.0,0.0,77,0.00,,,0.00,weatherlink.com 1.10,2014-04-17 14:16:00,
2014-04-17 07:31:00,59.4,51.0,29.86,SSW,204,0.0,0.0,74,0.00,,,0.00,weatherlink.com 1.10,2014-04-17 14:31:00,
2014-04-17 07:47:00,64.1,52.0,29.86,SSW,205,0.0,0.0,64,0.00,,,0.00,weatherlink.com 1.10,2014-04-17 14:47:00,
2014-04-17 08:02:00,66.6,51.0,29.86,NE,52,0.0,1.0,58,0.00,,,0.00,weatherlink.com 1.10,2014-04-17 15:02:00,
2014-04-17 08:17:00,66.5,52.0,29.86,East,90,0.0,1.0,59,0.00,,,0.00,weatherlink.com 1.10,2014-04-17 15:17:00,
2014-04-17 08:32:00,69.6,51.0,29.86,West,269,1.0,2.0,51,0.00,,,0.00,weatherlink.com 1.10,2014-04-17 15:32:00,
2014-04-17 08:47:00,69.8,52.0,29.86,ESE,103,0.0,3.0,53,0.00,,,0.00,weatherlink.com 1.10,2014-04-17 15:47:00,
2014-04-17 09:02:00,68.5,52.0,29.86,North,358,2.0,4.0,57,0.00,,,0.00,weatherlink.com 1.10,2014-04-17 16:02:00,
2014-04-17 09:17:00,69.1,54.0,29.86,ENE,58,1.0,3.0,58,0.00,,,0.00,weatherlink.com 1.10,2014-04-17 16:17:00,
2014-04-17 09:32:00,70.5,53.0,29.86,East,79,0.0,3.0,54,0.00,,,0.00,weatherlink.com 1.10,2014-04-17 16:32:00,
2014-04-17 09:47:00,71.2,53.0,29.87,NNW,338,2.0,5.0,53,0.00,,,0.00,weatherlink.com 1.10,2014-04-17 16:47:00,
2014-04-17 10:02:00,70.3,53.0,29.88,North,360,2.0,5.0,55,0.00,,,0.00,weatherlink.com 1.10,2014-04-17 17:02:00,
2014-04-17 10:17:00,69.9,54.0,29.88,NE,37,4.0,5.0,57,0.00,,,0.00,weatherlink.com 1.10,2014-04-17 17:17:00,
2014-04-17 10:32:00,71.2,52.0,29.88,West,261,1.0,5.0,51,0.00,,,0.00,weatherlink.com 1.10,2014-04-17 17:32:00,
2014-04-17 10:47:00,72.9,53.0,29.88,NE,49,1.0,4.0,49,0.00,,,0.00,weatherlink.com 1.10,2014-04-17 17:47:00,
2014-04-17 11:02:00,74.0,52.0,29.88,North,9,0.0,3.0,46,0.00,,,0.00,weatherlink.com 1.10,2014-04-17 18:02:00,
2014-04-17 11:17:00,74.8,52.0,29.88,SE,132,1.0,4.0,45,0.00,,,0.00,weatherlink.com 1.10,2014-04-17 18:17:00,
2014-04-17 11:32:00,76.4,52.0,29.87,ESE,106,2.0,4.0,42,0.00,,,0.00,weatherlink.com 1.10,2014-04-17 18:32:00,
2014-04-17 11:47:00,77.0,51.0,29.87,SE,125,1.0,3.0,41,0.00,,,0.00,weatherlink.com 1.10,2014-04-17 18:47:00,
2014-04-17 12:02:00,78.3,50.0,29.87,South,169,3.0,6.0,37,0.00,,,0.00,weatherlink.com 1.10,2014-04-17 19:02:00,
2014-04-17 12:17:00,77.7,50.0,29.87,WSW,254,1.0,6.0,38,0.00,,,0.00,weatherlink.com 1.10,2014-04-17 19:17:00,
2014-04-17 12:32:00,78.4,49.0,29.86,North,4,4.0,7.0,35,0.00,,,0.00,weatherlink.com 1.10,2014-04-17 19:32:00,
2014-04-17 12:47:00,78.6,47.0,29.86,ENE,78,1.0,5.0,33,0.00,,,0.00,weatherlink.com 1.10,2014-04-17 19:47:00,
2014-04-17 13:02:00,79.1,48.0,29.86,NNW,327,4.0,6.0,34,0.00,,,0.00,weatherlink.com 1.10,2014-04-17 20:02:00,
2014-04-17 13:17:00,79.1,48.0,29.86,NNE,30,1.0,6.0,34,0.00,,,0.00,weatherlink.com 1.10,2014-04-17 20:17:00,
2014-04-17 13:32:00,79.3,49.0,29.86,NE,37,2.0,9.0,34,0.00,,,0.00,weatherlink.com 1.10,2014-04-17 20:32:00,
2014-04-17 13:47:00,78.6,48.0,29.85,NNE,18,1.0,4.0,34,0.00,,,0.00,weatherlink.com 1.10,2014-04-17 20:47:00,
2014-04-17 14:02:00,78.9,46.0,29.85,NNW,348,3.0,7.0,31,0.00,,,0.00,weatherlink.com 1.10,2014-04-17 21:02:00,
2014-04-17 14:17:00,79.3,44.0,29.85,South,177,3.0,5.0,29,0.00,,,0.00,weatherlink.com 1.10,2014-04-17 21:17:00,
2014-04-17 14:32:00,79.4,45.0,29.85,South,177,1.0,5.0,30,0.00,,,0.00,weatherlink.com 1.10,2014-04-17 21:32:00,
2014-04-17 14:47:00,81.2,45.0,29.85,NNE,13,1.0,6.0,28,0.00,,,0.00,weatherlink.com 1.10,2014-04-17 21:47:00,
2014-04-17 15:02:00,79.9,46.0,29.84,ENE,57,2.0,10.0,30,0.00,,,0.00,weatherlink.com 1.10,2014-04-17 22:02:00,
2014-04-17 15:17:00,79.0,45.0,29.84,NNE,20,3.0,8.0,30,0.00,,,0.00,weatherlink.com 1.10,2014-04-17 22:17:00,
2014-04-17 15:32:00,78.1,44.0,29.84,NNE,30,2.0,7.0,30,0.00,,,0.00,weatherlink.com 1.10,2014-04-17 22:32:00,
2014-04-17 15:47:00,78.0,44.0,29.84,North,358,3.0,8.0,30,0.00,,,0.00,weatherlink.com 1.10,2014-04-17 22:47:00,
2014-04-17 16:03:00,76.8,45.0,29.84,SW,215,1.0,7.0,32,0.00,,,0.00,weatherlink.com 1.10,2014-04-17 23:03:00,
2014-04-17 16:18:00,75.9,45.0,29.83,ESE,115,3.0,8.0,33,0.00,,,0.00,weatherlink.com 1.10,2014-04-17 23:18:00,
2014-04-17 16:33:00,75.6,45.0,29.83,South,169,4.0,5.0,34,0.00,,,0.00,weatherlink.com 1.10,2014-04-17 23:33:00,
2014-04-17 16:48:00,73.6,45.0,29.84,West,260,1.0,6.0,36,0.00,,,0.00,weatherlink.com 1.10,2014-04-17 23:48:00,
2014-04-17 17:03:00,72.6,45.0,29.84,North,1,1.0,7.0,38,0.00,,,0.00,weatherlink.com 1.10,2014-04-18 00:03:00,
2014-04-17 17:18:00,72.1,44.0,29.84,NNW,342,3.0,8.0,36,0.00,,,0.00,weatherlink.com 1.10,2014-04-18 00:18:00,
2014-04-17 17:33:00,71.5,44.0,29.84,NW,318,3.0,9.0,37,0.00,,,0.00,weatherlink.com 1.10,2014-04-18 00:33:00,